Regional Weather Roundup
Issued by NWS

Home | Current Version | Previous Version | Graphics & Text | Print | Product List | Glossary On
Versions: 1 2 3 4 5 6 7 8 9 10 11 12 13 14 15 16 17 18 19 20 21 22 23 24 25 26 27 28 29 30 31 32 33 34 35 36 37 38 39 40 41 42 43 44 45 46 47 48 49 50
000
ASUS43 KLSX 270907
RWRMO

WEATHER SUMMARY FOR MISSOURI
NATIONAL WEATHER SERVICE SPRINGFIELD MO
300 AM CST FRI FEB 27 2015

NOTE: "FAIR" INDICATES FEW OR NO CLOUDS BELOW 12,000 FEET WITH NO
       SIGNIFICANT WEATHER AND/OR OBSTRUCTIONS TO VISIBILITY.
       CURRENT SKY AND/OR WEATHER CONDITIONS ARE NOT AVAILABLE FOR
       CHILLICOTHE AND FARMINGTON.

MOZ001>031-035>038-043-044-053-054-271000-
...NORTHERN AND WESTERN MISSOURI...

CITY           SKY/WX    TMP DP  RH WIND       PRES   REMARKS
KANSAS CTY INT PTCLDY     1  -4  79 N7        30.58S WCI -12
KANSAS C DTWN  CLEAR      5  -4  66 CALM      30.62R
LEE`S SUMMIT   CLEAR      4  -4  69 N6        30.59R WCI  -7
ST JOSEPH      CLEAR      0  -5  79 N3        30.62S
CHILLICOTHE      N/A      2  -5  72 N3        30.61F
KIRKSVILLE     CLEAR     -2  -6  83 W3        30.57S

$$
MOZ066>068-077>081-088>096-101>105-271000-
...SOUTHWEST MISSOURI...

CITY           SKY/WX    TMP DP  RH WIND       PRES   REMARKS
SPRINGFIELD    CLEAR     10   1  67 N7        30.51R WCI  -1
JOPLIN         CLEAR     11   3  70 N7        30.56R WCI   0

$$
MOZ032>034-039>042-045>050-055>058-069>072-271000-
...CENTRAL MISSOURI...

CITY           SKY/WX    TMP DP  RH WIND       PRES   REMARKS
COLUMBIA       CLEAR      4  -3  73 N7        30.56S WCI  -8
JEFFERSON CITY FAIR       6  -4  63 N9        30.60S WCI  -8
ROLLA          CLEAR      5  -3  69 N7        30.50S WCI  -7
SEDALIA        CLEAR      6  -2  69 N9        30.58S WCI  -8
WHITEMAN AFB   CLEAR      4  -2  75 N8        30.57F WCI  -9
WARRENSBURG    CLEAR      5   0  78 CALM      30.61R
OSAGE BEACH    CLEAR      7   0  72 CALM      30.55R

$$
MOZ051-052-059>065-271000-
...EAST CENTRAL MISSOURI...

CITY           SKY/WX    TMP DP  RH WIND       PRES   REMARKS
ST LOUIS INTL  CLEAR      5  -4  66 N9        30.57S WCI  -9
SPIRIT OF STL  CLEAR      6  -5  60 N6        30.57F WCI  -4
ST CHARLES     CLEAR      3  -5  69 NW9       30.58S WCI -12

$$
MOZ072>076-082>087-097>100-106>115-271000-
...SOUTH CENTRAL AND SOUTHEAST MISSOURI...

CITY           SKY/WX    TMP DP  RH WIND       PRES   REMARKS
CAPE GIRARDEAU CLEAR     13   4  67 N10       30.54R WCI   0
FARMINGTON     CLEAR      7  -2  66 N7        30.53R WCI  -5
POPLAR BLUFF   CLEAR     16   4  59 N13       30.53R WCI   2
WEST PLAINS    CLEAR     10   1  67 N9        30.49R WCI  -3

$$


USA.gov is the U.S. government's official web portal to all federal, state and local government web resources and services.